Theta_e
306 306 306 305 304 303 300 295 284 298 296 285 283 280 286 293 292 293 291 291 290 288 289 287 285 285 289 294 293 288 291 287 281 283 290 294 292 290 289 284 279 281 279 281
306 306 305 305 304 303 298 291 291 298 294 279 280 284 287 290 290 290 290 288 292 292 289 284 288 288 293 295 293 290 289 283 278 277 287 293 288 291 290 288 288 282 277 280
305 305 305 305 304 304 299 292 283 286 287 286 282 284 284 285 292 290 291 289 293 290 287 289 287 288 292 295 294 299 296 287 283 275 277 285 284 287 289 288 283 283 284 286
305 304 304 304 304 304 293 287 282 285 279 282 284 283 285 284 284 290 289 289 289 286 283 285 287 289 291 294 296 294 291 284 285 287 288 288 287 287 288 287 288 285 288 288
304 304 303 304 303 303 291 284 285 286 284 286 284 284 282 284 286 286 285 286 287 288 285 286 285 288 288 288 292 289 290 283 285 282 287 286 284 287 288 288 289 290 291 289
304 304 303 303 302 300 287 289 289 289 286 283 285 283 285 285 288 289 291 289 286 286 289 292 293 293 293 292 290 288 288 286 282 280 286 285 282 287 290 291 293 292 288 292
303 303 303 302 302 302 295 290 293 288 279 283 284 286 287 286 287 286 289 290 288 292 296 294 294 294 293 293 292 292 288 286 285 280 282 277 291 299 297 295 297 296 297 298
303 302 302 301 301 302 298 294 292 288 281 286 285 287 285 288 289 288 289 291 294 295 293 286 283 287 289 291 294 293 292 285 282 276 278 284 293 297 294 292 294 300 297 297
302 302 302 301 302 303 300 293 295 293 286 282 288 285 288 285 285 288 290 293 295 295 288 286 280 280 285 285 287 293 290 287 283 279 276 277 291 294 296 298 290 298 296 295
301 301 301 301 302 303 301 294 294 294 286 287 288 286 286 290 289 286 288 289 291 295 286 280 281 281 288 281 283 283 284 284 281 281 279 285 293 292 299 287 288 295 296 296
301 301 301 301 302 303 300 293 293 294 289 290 291 291 287 288 289 285 287 287 291 289 284 285 284 282 285 285 286 283 283 280 280 283 279 278 291 293 292 295 297 295 296 296
301 301 300 301 302 303 302 293 295 299 292 290 294 294 295 294 293 290 291 290 290 292 285 287 286 284 284 285 280 287 282 284 280 282 283 287 293 296 299 298 295 295 295 297
301 300 300 300 301 302 302 296 298 297 292 291 288 290 296 300 298 299 289 294 297 293 294 288 287 283 287 283 284 284 287 288 285 286 287 288 292 295 296 297 297 297 298 297
301 300 300 300 301 301 302 297 297 296 292 287 288 297 295 301 302 300 299 297 299 295 294 289 287 285 291 287 286 284 285 285 285 286 287 290 291 294 295 295 296 296 297 297
301 301 301 301 301 301 299 295 296 298 293 289 290 294 296 297 305 306 304 302 297 294 291 289 288 291 290 290 287 284 285 284 284 282 287 289 290 294 296 294 294 295 294 294
301 302 301 301 301 301 293 290 299 300 299 293 285 290 294 297 301 304 304 302 301 297 294 293 295 295 291 284 280 286 289 292 291 289 294 293 294 295 296 294 294 295 295 295
301 301 301 301 301 299 292 289 297 302 300 292 288 284 292 298 305 303 300 299 297 294 296 294 294 291 287 286 281 286 291 293 293 295 294 292 294 293 296 296 296 297 296 296
301 301 302 302 303 302 297 296 302 301 295 295 288 285 289 300 298 296 299 295 293 296 295 296 293 293 290 285 287 291 292 293 294 294 296 295 296 296 296 297 297 295 294 295
301 301 302 297 296 295 298 307 305 298 296 288 288 287 285 297 298 299 299 299 290 294 293 293 292 288 283 287 291 291 292 292 293 296 296 296 295 295 296 296 296 294 294 295
302 297 294 290 297 304 305 300 292 295 295 294 289 289 286 295 296 295 294 297 294 288 292 295 289 286 293 294 295 294 294 295 296 293 292 294 294 294 295 295 296 295 293 293
290 287 288 292 299 294 296 291 291 292 290 293 290 289 288 296 292 293 296 292 294 288 291 289 287 286 292 296 297 298 297 296 298 297 297 296 296 294 294 294 293 292 292 290
290 289 292 292 292 294 290 288 289 290 288 292 289 291 292 295 298 295 296 293 292 287 296 290 286 291 297 297 298 296 298 298 298 299 297 295 295 295 294 292 291 291 291 291
295 294 292 289 290 281 283 285 282 288 290 292 291 290 292 296 297 296 295 291 289 297 288 287 289 294 297 298 296 293 298 297 297 296 294 294 293 294 293 292 292 292 292 291
288 289 280 285 283 285 285 287 287 290 290 292 291 290 291 293 292 295 291 293 295 288 285 285 291 295 297 297 295 291 291 292 292 292 292 292 292 292 293 292 293 292 291 291
287 287 279 283 288 291 291 292 291 293 294 292 291 290 292 291 290 292 291 289 286 287 284 286 292 295 294 294 293 291 291 290 290 291 291 291 292 291 291 291 291 292 291 291
288 287 285 287 286 286 288 290 290 294 293 292 291 289 289 289 288 289 288 286 283 284 290 292 294 296 293 291 292 291 291 289 289 290 291 291 291 291 290 291 292 292 292 291
289 285 288 286 285 286 288 291 291 294 292 288 291 288 288 292 288 287 289 286 289 291 293 295 297 297 293 292 292 292 292 291 290 290 290 289 290 290 290 289 290 291 292 291
Wind_Speed
19 20 21 23 24 27 9 5 4 7 7 7 3 3 8 9 6 9 9 8 4 5 7 6 6 7 5 5 5 7 2 5 6 10 11 5 3 3 2 4 5 5 3 13
16 18 20 22 24 20 5 6 5 5 6 5 4 7 8 6 9 10 4 6 2 6 4 8 7 7 5 10 5 3 2 4 6 10 2 3 3 4 7 3 3 8 7 6
14 15 18 20 24 23 2 3 5 6 6 2 2 6 7 5 7 12 11 11 5 7 13 11 7 11 8 3 13 21 14 6 8 10 9 3 11 12 11 7 5 7 15 9
12 14 17 18 21 25 3 4 1 0 6 4 8 2 5 9 9 4 11 5 8 17 8 18 6 9 12 12 16 1 3 5 9 16 21 21 22 23 19 19 15 12 9 20
10 11 13 15 19 19 5 3 4 4 5 8 5 3 4 8 11 8 14 6 20 21 11 15 24 20 16 6 4 2 2 5 4 15 20 19 22 21 20 22 21 20 19 19
9 10 11 12 14 9 3 3 3 1 5 4 7 4 11 18 15 10 8 17 23 20 17 19 27 22 19 13 4 3 3 3 3 6 8 13 11 13 16 14 13 16 15 15
7 9 10 11 11 9 1 2 2 3 5 3 7 15 18 16 16 17 24 18 11 11 25 22 9 4 7 7 8 9 4 2 3 7 9 5 6 12 14 1 1 6 2 3
6 8 9 9 9 9 1 0 1 3 5 7 15 8 13 15 16 15 18 17 12 19 12 6 7 3 0 4 1 3 9 1 4 3 4 8 5 11 12 9 4 2 4 2
6 7 9 9 9 11 2 2 2 2 5 5 7 15 13 12 13 9 7 13 8 5 3 3 5 4 5 5 7 5 4 1 2 3 4 4 6 21 24 14 1 5 9 7
6 7 8 9 11 11 3 2 2 2 4 6 2 7 9 7 5 7 10 8 6 3 3 3 3 3 5 6 7 6 4 2 3 4 4 7 11 30 18 2 4 12 12 13
6 7 8 10 12 11 2 4 4 3 4 12 9 5 5 6 6 5 7 9 1 3 4 3 3 2 4 4 3 5 4 5 4 4 5 7 29 23 6 7 13 15 17 16
6 7 8 10 11 12 5 2 2 3 5 9 13 19 23 23 27 10 4 5 7 4 2 2 2 2 3 5 4 3 2 3 4 3 3 11 16 11 12 16 17 15 17 17
7 8 8 9 11 11 7 3 3 3 4 8 3 7 8 9 14 12 5 4 3 1 0 0 1 3 2 4 3 4 5 5 3 4 2 12 17 14 14 18 17 17 16 19
8 8 9 9 10 10 10 2 2 1 3 4 9 4 8 14 8 14 16 9 2 1 1 0 1 2 1 3 3 3 3 8 7 4 6 11 16 16 12 18 18 19 19 19
9 9 9 10 10 11 7 5 4 6 2 4 8 16 5 9 5 6 11 10 4 2 1 1 1 2 2 2 1 3 6 5 4 4 9 2 8 11 12 19 17 16 19 19
10 10 10 10 9 9 3 3 2 4 3 3 5 5 6 7 6 9 5 3 2 2 1 2 1 3 2 3 2 4 9 3 3 2 6 7 9 12 12 18 16 16 18 17
11 11 10 10 9 1 2 4 2 7 3 2 5 6 6 6 3 4 3 3 1 1 1 2 1 3 3 2 3 9 8 5 2 2 3 7 7 7 11 16 15 18 18 17
11 12 13 10 8 6 5 5 14 8 2 3 3 6 6 3 3 4 3 3 3 4 2 2 3 2 2 3 7 2 6 8 9 10 8 9 10 13 12 12 14 17 16 15
13 14 13 2 2 3 4 5 10 2 3 2 2 3 4 3 1 1 3 3 3 2 3 3 2 3 5 4 4 5 8 5 7 9 11 12 13 13 12 12 13 17 14 13
14 3 2 2 3 9 3 1 1 2 2 2 4 1 5 0 1 2 2 2 1 3 2 1 3 3 4 4 3 7 7 7 9 12 13 12 12 10 8 11 10 11 12 11
3 2 1 3 9 3 2 2 3 2 3 4 5 5 4 3 3 2 2 2 3 2 2 2 3 2 4 4 3 7 10 3 4 8 6 5 7 9 12 12 12 11 11 10
5 3 2 2 2 1 2 3 2 4 4 2 3 5 6 4 2 2 3 1 3 1 2 2 2 2 6 4 4 8 9 7 6 3 6 8 11 11 12 11 11 10 10 10
1 2 1 1 1 0 5 4 3 2 3 3 2 5 2 4 1 3 2 1 3 2 3 2 2 3 2 3 4 7 11 7 4 1 6 9 9 10 11 10 9 10 10 9
2 3 3 5 4 5 5 4 4 5 2 3 2 3 1 2 1 3 2 3 3 2 1 3 3 1 3 4 4 9 8 8 9 8 8 10 10 9 9 8 8 9 9 7
2 3 4 6 5 3 3 2 1 2 1 1 3 2 1 3 2 3 1 2 2 1 4 3 3 3 5 6 5 6 6 6 6 6 7 8 8 8 7 6 7 9 8 8
2 4 3 3 1 3 3 1 3 2 2 1 2 2 2 3 2 1 1 1 2 3 2 3 4 4 5 6 6 6 6 6 6 6 6 7 8 8 7 6 7 7 8 8
4 4 3 3 2 5 4 3 3 1 2 1 1 2 4 3 1 1 0 3 2 2 2 2 4 5 7 6 6 7 7 7 6 5 6 5 6 7 7 7 4 6 6 7
Wind_Direction
337 338 340 342 348 342 10 351 346 327 0 51 23 9 312 299 302 333 301 329 320 260 287 274 271 245 265 30 331 319 280 292 273 240 245 278 264 210 222 214 229 240 187 248
336 339 340 343 343 353 316 333 287 326 51 66 349 317 303 281 325 317 327 286 302 294 295 301 247 269 263 296 254 257 251 257 307 319 351 68 185 214 198 266 284 219 199 262
334 339 342 344 339 341 2 352 347 334 34 97 155 320 311 314 311 300 343 282 307 320 293 278 272 268 287 252 268 267 266 229 212 233 234 294 276 246 239 233 258 244 228 248
332 339 344 346 342 338 85 24 317 246 326 326 316 281 282 330 340 300 313 295 295 316 289 302 249 270 273 283 288 262 168 270 244 259 261 268 266 268 265 251 243 251 272 244
327 335 346 354 348 344 67 43 11 355 280 279 303 307 281 315 323 312 300 273 311 307 285 276 296 300 292 268 283 211 187 268 284 274 266 258 260 260 256 251 244 233 254 253
324 332 346 359 359 19 43 301 316 152 279 300 306 311 323 311 333 297 265 305 306 301 295 310 291 280 274 251 249 207 236 261 292 263 299 288 259 252 242 242 230 210 215 235
321 328 340 355 4 357 159 283 279 287 277 289 295 306 303 315 306 289 295 301 288 274 309 302 289 237 229 233 234 219 258 244 249 294 319 318 329 18 29 137 97 221 91 80
313 322 335 339 354 331 257 82 327 295 288 297 295 312 315 304 306 290 285 289 282 302 307 333 331 327 246 9 41 284 215 186 290 283 291 289 326 20 2 342 304 102 138 101
303 320 321 333 331 318 297 225 212 286 310 256 321 312 298 310 316 299 276 303 286 328 323 317 340 341 324 333 344 77 76 57 285 324 299 310 18 346 328 314 303 39 59 19
294 309 314 326 314 317 324 270 199 255 283 274 271 299 308 290 281 276 301 329 320 7 337 332 327 311 329 337 326 350 331 343 251 269 263 274 2 332 313 337 31 63 58 49
282 302 311 320 307 315 348 261 199 208 256 286 256 254 221 263 261 272 308 324 215 312 342 342 341 304 332 297 359 349 335 323 337 316 336 335 338 328 7 80 71 64 63 68
284 296 311 307 304 313 330 259 240 186 237 261 286 267 255 249 254 261 261 256 314 272 315 325 319 323 325 312 335 0 24 358 302 325 353 297 314 351 45 73 77 78 61 62
284 292 306 302 300 312 317 236 253 244 280 283 329 251 256 232 238 207 232 240 237 234 339 295 321 294 298 346 13 296 332 23 280 313 356 339 2 17 44 57 69 83 58 60
278 289 294 297 300 306 303 240 187 207 271 289 283 288 299 292 259 184 207 258 63 98 152 266 305 287 1 7 352 355 321 312 316 328 323 334 8 17 45 63 63 69 62 60
276 287 292 299 306 307 303 243 221 208 221 296 290 311 269 294 301 246 222 231 155 191 182 214 274 243 291 113 47 16 338 321 359 346 306 307 5 24 52 68 64 64 75 77
280 291 298 302 305 321 342 320 86 161 190 283 297 283 294 302 313 317 296 283 141 202 240 266 88 63 9 40 34 309 334 339 4 335 3 56 57 49 54 79 76 72 74 69
285 291 292 294 295 262 211 205 187 178 7 269 286 303 283 298 319 316 337 353 21 128 341 20 13 35 61 53 347 326 344 357 10 338 328 54 44 72 68 79 79 80 78 70
288 291 290 290 283 269 268 251 243 209 247 258 295 281 321 293 355 323 359 336 12 9 353 32 357 71 51 54 319 71 352 4 55 64 66 89 91 86 82 80 83 81 79 79
289 288 291 356 144 192 229 251 125 166 152 261 297 279 282 332 82 320 318 334 335 292 32 20 29 16 41 286 15 46 42 28 87 83 82 85 85 85 83 83 87 91 90 78
298 134 124 294 221 321 14 154 148 206 212 222 245 272 263 307 233 288 286 276 264 21 350 97 52 39 302 260 65 104 68 57 86 97 88 85 86 84 90 89 86 82 85 94
42 53 207 272 319 49 201 215 222 157 227 206 232 212 246 260 197 248 240 274 352 60 314 65 29 59 281 305 332 141 112 157 67 100 79 57 113 111 100 94 95 93 95 93
172 179 235 308 341 172 253 214 230 210 236 226 209 245 206 270 185 77 303 356 334 109 113 73 43 299 276 299 359 109 152 159 168 143 58 98 100 98 102 105 103 99 96 94
116 182 135 121 183 269 202 213 261 235 219 249 298 312 249 322 102 86 325 332 290 106 57 64 214 273 305 153 95 104 160 164 184 187 97 99 89 95 104 100 98 100 96 101
145 174 209 196 218 235 196 198 202 240 197 292 244 268 238 291 333 135 241 216 195 85 101 193 221 211 114 134 107 118 127 121 114 112 105 102 100 98 102 108 116 112 108 107
182 168 224 220 242 264 229 236 297 262 207 321 329 305 159 284 291 203 247 226 47 118 218 218 197 182 138 153 129 120 119 113 103 106 106 107 109 112 108 112 110 107 107 103
215 235 275 246 51 297 329 300 274 256 301 75 67 328 321 275 200 11 26 89 235 247 216 193 147 145 133 151 150 145 135 129 123 119 119 117 120 126 124 112 111 116 122 122
226 246 220 207 237 231 237 197 239 223 61 357 71 330 238 301 110 94 77 192 226 200 162 154 152 147 148 148 140 141 138 138 135 123 121 116 110 110 106 120 135 131 138 135